User: anonymous   Login
Location: Brede
(50.9167°N, 0.6000°E)
Time: 12:29:16
(UTC+00:00)
Language:

UNK - Orbit

View from above orbital plane
View from above orbital plane
View from above satellite
View from above satellite

Ground track
Ground track

The orbit data is extracted from the following two-line orbital elements,

1 27940U 03042B   20293.30499926 +.00000074 +00000-0 +22711-4 0  9997
2 27940 098.1298 062.6098 0014522 025.2359 334.9550 14.65187823911636
Epoch (UTC): 19 October 2020 07:19:11
Eccentricity: 0.0014522
inclination: 98.1298°
perigee height: 666 km
apogee height: 687 km
right ascension of ascending node: 62.6098°
argument of perigee: 25.2359°
revolutions per day: 14.65187823
mean anomaly at epoch: 334.9550°
orbit number at epoch: 91163

The dashed part of the orbit path shows where the satellite is in the earth's shadow,  

DLR